Weather Roundup
Issued by NWS

Home | Current Version | Previous Version | Graphics & Text | Print | Product List | Glossary Off
Versions: 1 2 3 4 5 6 7 8 9 10 11 12 13 14 15 16 17 18 19 20 21 22 23 24 25 26 27 28 29 30 31 32 33 34 35 36 37 38 39 40 41 42 43 44 45 46 47 48 49 50

000
NZUS93 KARX 231610
HRRWXR

CURRENT HOURLY OBSERVATIONS ACROSS
MUCH OF THE UPPER MISSISSIPPI VALLEY
NATIONAL WEATHER SERVICE LA CROSSE WI
1000 AM CST THU FEB 23 2017


...SOUTHEAST MINNESOTA...


CITY           SKY/WX    TMP DP  RH WIND       PRES   REMARKS
ROCHESTER      CLOUDY    34  31  88 NE14      29.88R WCI  25
ROCHESTER/MAYO CLOUDY    35  31  85 NE8       29.89R WCI  29
WINONA         CLOUDY    37  32  81 NE6       29.90S WCI  33
AUSTIN         CLOUDY    36  30  80 NE9       29.87S WCI  29
ALBERT LEA     CLOUDY    34  30  86 N10       29.88R WCI  26
DODGE CENTER   CLOUDY    34  30  86 NE8       29.88S WCI  27
PRESTON        CLOUDY    35  31  85 N12       29.87S WCI  26
OWATONNA       CLOUDY    34  28  80 N8        29.90R WCI  27
FARIBAULT      CLOUDY    34  28  80 N8        29.92R WCI  27
$$

...ELSEWHERE IN MINNESOTA...


CITY           SKY/WX    TMP DP  RH WIND       PRES   REMARKS
MINNEAPOLIS    CLOUDY    34  25  69 NE9G20    29.93S WCI  27
INTNL FALLS    CLOUDY    21  12  68 NW12      30.00R WCI   9
DULUTH         CLOUDY    24  21  88 NW9       29.92R WCI  14
RED WING       CLOUDY    37  28  70 NE6       29.91R WCI  33
REDWOOD FALLS  CLOUDY    32  24  72 N9        29.93F WCI  24
MANKATO          N/A     32  27  81 NE14      29.91R WCI  22
WORTHINGTON    CLOUDY    31  26  82 NE21      29.86F WCI  18
FAIRMONT       CLOUDY    33  29  85 NE12      29.90F WCI  24
$$

...SOUTHWEST WISCONSIN...


CITY           SKY/WX    TMP DP  RH WIND       PRES   REMARKS
LA CROSSE      CLOUDY    42  31  64 N10       29.88S
PRAIRIE DU CHI CLOUDY    42  31  64 N12       29.84S
BOSCOBEL       CLOUDY    45  32  60 NE8       29.85R
LONE ROCK      CLOUDY    43  32  65 N13       29.85R
PLATTEVILLE    CLOUDY    42  38  85 N13       29.82S
FORT MC COY    PTSUNNY   38  32  76 NE9       29.88F WCI  32
CAMP DOUGLAS   PTSUNNY   41  30  65 N9        29.86R
MAUSTON-NEW LI MOSUNNY   39  31  73 N6        29.86R WCI  35
VIROQUA        FAIR      39  32  77 N10       29.85S WCI  32
WIS DELLS      CLOUDY    39  31  73 N6        29.85R WCI  35
$$

...ELSEWHERE IN WISCONSIN...


CITY           SKY/WX    TMP DP  RH WIND       PRES   REMARKS
MILWAUKEE      CLOUDY    43  38  82 NE9       29.82R
MADISON        CLOUDY    41  36  82 N16       29.81R
GREEN BAY      CLOUDY    39  31  72 N13       29.85R WCI  31
EAU CLAIRE     CLOUDY    37  30  75 N10       29.90S WCI  30
BLACK RVR FLS  CLOUDY    39  29  66 N10       29.88S WCI  32
MEDFORD        CLOUDY    34  28  80 N7        29.87R WCI  27
WAUSAU         CLOUDY    35  26  69 N12       29.87R WCI  27
WIS RAPIDS     PTSUNNY   42  30  62 N14       29.88R
MARSHFIELD     CLOUDY    37  28  70 N10       29.86R WCI  30
RICE LAKE      CLOUDY    32  26  80 N5        29.93R WCI  27
$$

...NORTHEAST IOWA...


CITY           SKY/WX    TMP DP  RH WIND       PRES   REMARKS
WATERLOO       CLOUDY    41  34  76 NE12      29.81F
DUBUQUE        PTSUNNY   41  35  79 NE13G25   29.82R
DECORAH        CLOUDY    39  32  75 N12       29.83S WCI  32
MASON CITY     CLOUDY    36  32  85 NE16      29.86F WCI  26
CHARLES CITY   CLOUDY    37  37 100 NE17      29.84F WCI  28
OELWEIN        PTSUNNY   41  36  81 N21       29.79F
$$

...ELSEWHERE IN IOWA...


CITY           SKY/WX    TMP DP  RH WIND       PRES   REMARKS
DES MOINES     CLOUDY    42  36  79 E12       29.81F
IOWA CITY      CLOUDY    45  37  73 N10       29.82S
FORT DODGE     CLOUDY    37  30  75 NE13G18   29.84F WCI  29
MARSHALLTOWN   CLOUDY    40  36  86 N14       29.81S WCI  32
CEDAR RAPIDS   CLOUDY    43  37  79 NE13      29.80R
$$

...NORTHERN ILLINOIS...


CITY           SKY/WX    TMP DP  RH WIND       PRES   REMARKS
CHICAGO-OHARE  CLOUDY    50  40  68 NE15      29.79S
CHICAGO-MIDWAY PTSUNNY   51  40  65 NE17      29.80R
MOLINE         CLOUDY    46  41  82 NE9       29.80S
ROCKFORD       CLOUDY    49  39  68 NE13      29.82R
PEORIA         CLOUDY    49  44  83 NE9       29.79R
$$

NOTE: "FAIR" INDICATES FEW OR NO CLOUDS BELOW 12,000 FEET WITH NO
SIGNIFICANT WEATHER AND/OR OBSTRUCTIONS TO VISIBILITY. WIND
SPEEDS ARE IN MILES-PER-HOUR.




USA.gov is the U.S. government's official web portal to all federal, state and local government web resources and services.